Flag for Norway Weather past 2 weeks in Rygge, Norway

Now
62 °F

Passing clouds.


Feels Like: 62 °F
Forecast: 63 / 75 °F
Wind: 2 mph from Southwest

Location: Rygge

Current Time: Aug 1, 2014 at 4:14:13 AM

Latest Report: Aug 1, 2014 at 3:00 AM


Visibility: 31 mi

Pressure: 29.74 "Hg

Humidity: 75%

Dew point: 54 °F

Location of RyggeLocation

Historic Weather in Rygge — Graph

°F

Rygge temperature yesterday

Maximum temperature yesterday: 74 °F (at 5:00 PM)
Minimum temperature yesterday: 59 °F (at 5:00 AM)
Average temperature yesterday: 67 °F

Past Weeks' High & Low Weather Summary

 TemperatureHumidityPressure
High90 °F (Jul 23, 5:00 PM)97% (Jul 18, 4:00 AM)30.31 "Hg (Jul 18, 4:00 AM)
Low55 °F (Jul 19, 5:00 AM)26% (Jul 23, 6:00 PM)29.62 "Hg (Jul 30, 8:00 PM)
Average70 °F63%30.02 "Hg
* Reported Jul 17 3:00 AM — Aug 1 3:00 AM, Rygge, Weather by CustomWeather, © 2014

Note: Actual official high and low records may vary slightly from our data, if they occured in-between our weather recording intervals... More about our weather records

Advertising

Rygge weather history for previous 24 hours

 ConditionsComfort  
Time TempWeatherWind HumidityBarometerVisibility
3:00 AM
Aug 1
62 °FPassing clouds.2 mph75%29.74 "Hg31 mi
2:00 AM63 °FPassing clouds.5 mph72%29.74 "Hg31 mi
1:00 AM63 °FPassing clouds.5 mph70%29.74 "Hg31 mi
12:00 AM63 °FClear.3 mph72%29.73 "Hg25 mi
11:00 PM
Jul 31
65 °FClear.5 mph70%29.72 "Hg31 mi
10:00 PM66 °FClear.6 mph69%29.71 "Hg25 mi
9:00 PM68 °FPassing clouds.6 mph64%29.70 "Hg22 mi
8:00 PM72 °FScattered clouds.5 mph52%29.68 "Hg22 mi
7:00 PM72 °FSunny.6 mph53%29.67 "Hg25 mi
6:00 PM72 °FPassing clouds.8 mph58%29.67 "Hg19 mi
5:00 PM74 °FOvercast.9 mph53%29.68 "Hg22 mi
4:00 PM73 °FSunny.9 mph53%29.68 "Hg22 mi
3:00 PM73 °FPassing clouds.9 mph49%29.68 "Hg22 mi
2:00 PM71 °FPartly sunny.8 mph56%29.68 "Hg28 mi
1:00 PM71 °FSunny.8 mph56%29.68 "Hg25 mi
12:00 PM70 °FSunny.8 mph57%29.68 "Hg25 mi
11:00 AM69 °FSunny.9 mph58%29.68 "Hg19 mi
10:00 AM70 °FSunny.6 mph48%29.67 "Hg25 mi
9:00 AM67 °FSunny.6 mph52%29.67 "Hg31 mi
8:00 AM65 °FSunny.5 mph60%29.67 "Hg28 mi
7:00 AM63 °FSunny.3 mph65%29.67 "Hg31 mi
6:00 AM60 °FSunny.2 mph72%29.66 "Hg28 mi
5:00 AM59 °FSunny.3 mph74%29.66 "Hg31 mi
4:00 AM60 °FClear.3 mph69%29.66 "Hg31 mi
Weather by CustomWeather, © 2014

See weather overviewHow to use our weather pages